GFSWCAN_500_rhum_216.txt.gz
RH
98 100 100 95 80 67 62 69 61 50 28 20 16 11 92 100 61 17 10 14 100 100 100 100 99 98 99 98 99 98 99 98 98 96 84 79 81 88 94 98 100 100 100 100 100 100 96 84 73 50 34 19 14 12
100 100 100 100 100 100 97 98 97 61 94 26 13 91 100 99 40 14 17 58 100 100 99 100 99 99 100 99 98 99 94 99 95 97 88 88 84 95 100 100 100 100 100 100 98 88 72 53 35 22 17 15 14 10
100 94 93 100 100 100 100 100 100 100 100 60 13 44 86 100 100 79 23 77 100 99 99 100 100 99 97 98 99 98 100 100 94 91 91 90 89 98 100 100 100 100 100 99 81 53 31 24 20 17 17 16 12 10
100 100 100 100 100 100 100 100 100 100 71 44 81 88 62 99 98 100 100 98 100 100 100 99 100 100 100 99 100 99 100 95 94 94 97 99 96 99 100 100 98 83 66 41 28 23 21 20 21 19 17 13 13 21
100 100 100 100 100 100 100 100 100 68 16 10 11 14 67 69 86 96 100 100 100 100 98 96 96 98 99 98 100 99 98 98 100 100 100 100 97 98 82 60 42 33 27 24 20 19 19 19 20 16 16 17 46 51
100 100 100 100 100 100 100 100 100 100 100 79 15 22 77 70 32 64 57 55 100 100 94 99 100 99 100 100 100 100 100 100 100 99 90 81 59 42 31 24 23 21 19 16 14 12 14 14 15 18 23 59 84 53
41 40 51 87 98 100 100 100 100 100 100 100 100 98 82 82 86 84 98 100 100 96 100 99 99 98 98 98 99 100 98 90 71 54 38 32 28 26 23 19 16 13 10 8 7 9 12 18 28 38 100 100 72 68
38 35 32 30 34 40 63 93 100 100 100 100 100 100 100 100 100 100 100 100 100 100 100 98 96 91 85 71 58 50 40 34 29 27 23 21 19 16 12 9 6 6 7 8 9 20 41 47 79 100 79 83 75 73
24 25 27 27 26 23 22 23 25 37 64 91 100 100 100 100 100 98 98 91 89 74 63 54 43 34 34 31 28 27 28 27 25 22 18 14 13 10 8 6 6 6 15 26 34 47 72 96 98 84 71 73 72 67
14 18 24 28 24 21 19 19 20 18 17 17 16 16 18 22 26 26 26 24 23 20 17 19 20 23 22 27 29 28 27 23 18 14 14 16 16 19 20 32 42 48 51 54 70 77 74 85 96 81 77 62 49 52
12 12 13 16 17 20 23 25 26 24 22 20 18 17 17 17 17 16 20 19 20 19 20 25 26 29 29 30 29 24 19 16 15 19 24 41 39 40 48 51 58 64 65 69 76 80 79 69 60 60 63 59 42 41
9 9 10 10 12 14 15 16 16 16 18 19 20 22 25 28 30 29 31 32 31 31 32 34 33 34 32 28 22 21 22 22 21 31 35 40 37 43 42 48 56 60 62 65 66 64 62 69 71 78 71 57 45 41
12 12 12 12 13 14 15 16 18 19 19 18 17 16 15 16 16 18 21 26 26 34 36 36 32 28 24 24 25 25 24 25 31 41 67 44 40 48 49 57 61 60 59 62 62 66 66 66 61 58 61 59 53 46
11 12 13 14 15 16 18 18 19 19 20 21 22 22 20 20 20 21 21 21 23 24 26 27 26 26 28 28 28 26 33 40 52 69 82 72 59 56 54 56 55 54 69 82 86 75 72 70 65 63 64 52 42 33
15 14 12 12 11 11 12 12 11 11 13 17 23 30 34 35 35 32 31 29 26 25 26 27 30 32 32 27 28 36 47 54 64 70 67 57 54 51 47 48 64 95 99 84 65 52 48 46 39 32 26 24 28 39
19 19 20 18 18 17 12 11 14 13 11 10 12 22 32 44 49 48 45 40 38 36 34 32 33 34 32 30 38 50 57 82 73 59 57 55 55 56 61 74 77 63 52 40 32 26 22 23 31 40 53 57 58 52
24 26 27 28 29 29 29 27 19 23 23 15 11 13 20 35 47 46 47 45 41 37 35 34 35 35 32 35 49 66 98 93 73 60 50 49 56 59 47 32 28 22 21 23 43 68 68 66 62 53 46 47 44 43
28 33 34 34 36 36 35 31 32 31 30 30 23 14 13 18 23 30 26 24 26 33 39 46 45 41 40 56 96 100 89 76 61 49 44 40 35 32 29 25 27 38 57 66 61 46 30 25 23 22 23 24 26 29
26 33 39 39 39 41 44 45 47 45 40 38 37 35 20 15 14 16 17 19 24 29 35 43 41 56 89 97 87 76 65 53 46 42 36 29 24 31 44 56 56 47 32 23 21 22 22 22 22 22 22 22 24 25
25 27 33 41 45 44 48 49 54 58 59 55 49 42 43 47 37 18 15 15 17 21 22 26 51 71 75 70 56 44 36 32 28 25 38 69 76 71 58 41 25 20 20 21 22 22 23 24 25 26 28 30 32 34
66 45 43 43 47 48 50 51 53 55 63 71 74 75 73 58 48 51 53 50 35 19 19 21 24 24 26 28 25 22 22 28 63 84 80 68 49 30 22 21 21 22 23 24 26 26 28 29 29 30 32 35 36 38
95 96 93 94 89 88 86 79 78 74 71 66 72 78 84 88 85 78 63 62 70 62 60 58 58 58 59 64 73 79 76 69 63 50 38 26 20 20 21 22 23 24 26 26 26 25 25 26 29 31 33 36 40 44
100 100 99 96 99 100 100 97 100 96 96 90 84 82 82 79 66 56 62 68 61 56 58 61 63 66 66 68 69 60 45 33 24 20 20 20 20 21 21 22 24 23 22 20 22 23 26 28 30 31 34 40 48 56
100 100 96 88 96 100 100 100 96 95 95 93 85 80 85 80 63 63 66 64 60 67 65 57 49 44 43 39 35 32 30 30 28 24 22 20 19 19 19 19 20 20 20 21 24 26 27 25 27 34 45 55 64 72
95 92 86 95 100 100 100 100 100 91 84 80 82 86 87 79 64 64 73 67 74 58 56 62 67 72 72 74 79 83 88 87 71 44 26 20 18 18 19 20 21 21 22 24 25 24 23 26 34 44 53 67 78 83
91 88 91 100 100 99 100 100 100 92 76 74 82 97 96 71 65 67 80 74 77 68 69 68 67 73 78 77 74 80 89 89 84 73 48 27 20 19 19 21 23 24 26 25 23 20 23 31 44 60 69 75 66 48
74 87 100 100 100 100 100 100 100 100 97 87 92 96 96 98 81 77 83 88 80 75 72 72 77 84 90 94 92 93 92 89 86 82 67 40 24 21 23 25 25 27 26 24 21 23 34 51 55 53 38 25 25 27
92 100 100 100 100 100 100 100 100 100 98 90 88 93 89 93 99 97 94 90 88 85 79 84 89 96 100 100 100 100 100 100 99 85 74 47 26 24 26 24 25 26 23 21 25 40 48 42 28 20 22 28 36 44
100 100 100 100 100 100 100 100 100 100 100 90 86 86 85 91 99 100 100 100 98 97 99 100 100 100 100 100 100 99 98 100 100 97 68 36 25 25 23 24 26 23 22 32 50 46 30 19 22 30 37 45 57 66
100 100 100 100 100 100 100 100 100 99 92 93 97 98 100 100 100 100 100 100 100 100 100 100 100 100 100 100 100 100 98 100 100 75 38 25 25 25 26 28 25 26 40 47 36 21 21 28 35 46 57 67 72 78
100 100 100 100 100 100 100 100 99 96 91 91 96 96 100 100 100 100 100 100 100 100 100 100 100 100 100 100 100 100 100 100 72 32 22 24 24 27 28 25 27 40 43 29 18 24 39 52 56 66 77 82 85 90
100 100 100 100 100 100 100 99 96 92 98 100 100 100 100 100 100 94 100 100 100 100 100 100 100 100 100 100 100 100 99 54 22 20 23 23 29 28 26 30 41 40 24 19 32 52 60 62 74 80 82 89 91 94
100 100 100 100 100 100 100 100 96 94 99 100 100 100 100 94 88 91 92 100 100 100 100 100 100 100 100 100 100 78 28 18 19 21 24 31 27 26 31 41 36 21 20 37 56 62 64 71 80 83 85 86 91 93

GFSWCAN_500_rhum_219.txt.gz
RH
75 44 42 73 76 74 63 93 99 82 81 100 100 62 46 22 23 100 100 100 99 100 77 99 100 99 99 99 100 98 100 94 98 100 99 97 97 97 98 98 98 99 98 85 77 70 67 80 71 92 85 98 96 92
80 97 69 43 32 46 67 65 61 58 91 96 62 42 33 37 27 100 40 80 51 62 23 100 98 99 100 99 99 98 98 98 98 99 98 98 97 98 99 98 96 97 99 96 84 76 68 73 80 90 98 96 88 69
74 91 94 86 66 47 63 64 54 55 48 44 41 32 23 35 17 22 100 100 100 100 56 69 91 100 98 96 99 99 96 94 97 98 99 99 99 100 98 97 93 93 88 73 72 77 72 86 87 93 87 68 37 23
78 75 91 94 99 100 100 95 57 47 43 36 31 72 96 52 88 100 90 96 62 34 34 95 92 99 98 96 98 96 98 99 99 100 99 99 99 98 95 92 83 86 75 92 89 83 94 91 85 67 45 29 22 19
97 92 93 86 78 93 100 100 100 100 70 100 68 100 100 100 100 100 59 41 36 46 41 68 84 100 98 99 100 100 100 100 97 96 97 95 98 94 83 90 84 82 100 100 99 93 78 59 40 26 20 17 16 14
100 100 100 100 100 100 100 100 100 100 93 100 100 100 100 96 100 76 58 39 36 89 60 30 87 99 100 100 100 97 99 100 100 99 97 94 98 90 91 89 100 98 93 84 60 46 38 26 20 15 13 12 12 14
39 63 94 100 100 100 100 100 100 100 100 100 92 98 100 100 100 100 100 62 96 100 100 100 100 100 97 96 99 100 99 99 100 100 100 100 99 99 98 99 88 77 58 42 30 20 15 11 8 8 9 14 22 70
31 32 32 52 86 100 100 100 100 80 68 100 94 99 100 100 100 100 99 97 97 100 100 93 92 97 94 96 100 100 100 100 100 100 100 100 97 88 71 59 37 29 22 15 10 7 6 6 6 9 16 33 100 64
17 22 24 26 27 38 62 97 100 100 99 95 100 74 31 56 71 93 91 95 100 100 92 87 92 94 97 99 100 100 100 100 95 87 75 65 43 32 28 20 15 10 7 6 5 4 5 7 16 24 91 100 70 52
16 16 22 24 21 23 22 26 37 70 96 100 100 100 100 97 73 93 97 98 100 100 95 95 100 91 86 76 72 66 55 44 35 31 26 23 19 15 12 9 7 7 6 5 4 6 17 27 36 81 78 67 57 60
12 14 15 16 19 23 23 20 19 20 22 33 54 78 84 93 97 98 94 94 85 81 82 64 46 38 42 42 32 30 28 27 25 22 19 16 14 13 12 12 14 18 25 27 27 30 44 57 68 72 68 62 62 58
10 10 12 14 15 16 16 18 24 24 25 23 25 24 24 28 32 45 41 40 39 33 31 29 25 24 26 28 28 28 28 26 22 18 15 14 18 21 23 28 30 38 45 46 51 60 69 77 78 75 66 59 55 57
10 11 12 13 15 16 17 17 16 16 18 22 26 31 29 31 26 23 22 22 23 24 28 32 33 34 33 33 32 29 25 20 19 17 18 28 29 35 30 32 35 42 47 49 56 64 64 61 58 60 62 66 63 56
11 11 12 12 14 14 15 16 18 18 18 17 16 15 15 17 17 20 20 24 28 29 31 32 33 33 34 31 27 23 20 19 19 18 25 56 45 35 35 40 47 54 60 72 78 77 74 70 65 60 54 47 41 35
15 14 13 11 10 10 11 11 10 11 13 18 19 19 18 17 17 16 16 15 15 18 22 26 28 29 27 23 23 23 24 22 20 30 56 76 93 71 61 61 61 71 90 95 81 70 66 59 50 40 31 24 22 23
19 18 19 20 20 17 15 18 19 16 12 8 9 11 15 21 24 25 25 24 24 22 21 22 23 24 24 25 26 25 23 27 39 50 67 81 92 75 58 64 74 76 73 65 56 47 36 27 25 25 26 28 32 33
23 23 24 24 24 26 26 23 22 26 21 13 9 10 15 18 26 30 36 37 35 34 32 31 31 32 31 30 27 80 62 50 62 75 74 77 80 56 62 64 58 50 40 34 31 28 26 26 30 32 30 24 18 18
26 29 29 31 33 31 27 29 29 28 27 25 16 10 10 15 24 30 33 34 36 37 35 37 36 35 32 30 58 50 43 61 60 67 55 49 52 49 41 36 32 30 26 24 25 30 33 28 20 17 17 18 18 17
25 31 33 34 37 40 39 43 43 39 32 31 29 24 17 12 11 12 13 15 17 18 21 23 25 30 38 42 69 70 69 68 51 49 43 37 33 31 29 26 23 23 28 30 22 16 16 15 15 15 17 18 19 20
21 25 34 39 39 40 45 48 53 56 57 49 38 36 34 32 24 14 11 12 14 17 21 28 46 53 39 34 38 41 50 48 43 41 36 30 24 25 29 38 38 25 16 15 16 16 17 18 18 17 18 19 19 19
29 23 27 30 38 43 45 47 50 53 58 64 68 71 56 39 38 39 36 27 13 15 21 25 25 28 28 29 37 44 45 39 29 24 26 32 46 45 29 20 18 18 18 18 17 17 17 18 19 20 20 18 19 21
78 63 61 52 41 42 54 60 60 55 59 59 63 68 74 76 69 57 51 48 44 38 38 34 34 36 34 36 35 39 48 53 54 50 46 35 26 21 18 17 16 16 16 16 17 18 20 20 19 18 17 18 20 21
100 100 98 98 96 95 79 86 88 85 83 80 76 73 75 75 73 65 52 52 53 35 42 48 49 48 47 46 41 42 38 33 29 28 31 35 36 35 29 24 19 18 18 19 18 18 18 17 16 16 18 21 23 25
100 100 100 100 100 100 100 97 89 91 93 91 88 87 86 84 74 64 62 57 45 45 50 52 42 38 33 31 32 42 54 64 61 59 66 72 68 67 67 62 51 38 27 21 19 18 17 18 19 22 24 23 26 28
96 99 96 100 100 100 100 94 86 84 82 81 80 79 84 82 71 62 65 59 48 54 58 47 44 47 51 52 54 59 64 67 74 81 80 100 96 94 88 82 72 53 36 24 21 18 20 22 23 22 22 25 28 37
90 95 99 100 100 100 100 100 92 86 81 76 77 84 91 91 80 72 75 59 57 63 63 56 60 63 63 67 72 79 91 97 92 92 89 95 94 93 96 98 75 39 27 22 19 20 22 22 21 23 26 35 43 37
80 84 100 100 100 100 94 91 88 86 88 86 84 85 86 92 99 95 78 70 68 65 67 68 64 66 70 76 85 92 94 98 100 100 100 100 100 100 100 96 49 28 23 22 22 22 21 21 24 31 35 28 20 21
81 100 100 100 100 100 93 91 96 94 89 91 88 82 80 83 89 95 98 97 94 85 81 80 85 86 83 86 97 100 100 100 100 100 100 100 100 100 99 56 25 23 22 23 23 21 21 26 32 27 18 20 30 36
99 100 100 100 100 100 98 100 100 100 100 89 82 78 78 80 81 90 99 100 100 100 100 100 100 98 99 100 100 100 100 100 100 100 100 100 94 90 57 23 20 20 22 22 20 22 29 30 21 19 34 43 50 61
100 100 100 100 100 100 100 100 100 100 96 92 85 79 78 81 92 100 100 100 100 99 95 95 98 99 100 100 100 100 100 100 100 100 98 97 90 44 20 19 20 23 21 19 23 30 27 18 21 42 51 61 70 76
100 100 100 100 100 99 98 100 100 97 90 87 85 84 86 96 100 100 100 100 97 98 97 94 91 92 96 98 100 100 100 100 99 97 97 71 22 18 19 22 24 21 21 25 30 23 18 29 48 54 65 76 82 84
100 100 100 100 100 100 95 92 94 93 95 94 94 96 100 100 100 100 100 97 96 93 95 100 100 100 100 100 100 94 91 91 92 68 22 16 18 20 24 24 21 23 28 29 20 19 37 57 59 61 72 80 80 80
100 100 100 100 100 100 100 100 96 91 88 93 100 100 100 100 86 89 80 77 81 87 94 94 93 90 86 84 78 68 50 26 15 14 16 18 24 26 23 21 25 31 28 19 21 47 64 65 64 66 71 72 71 69

GFSWCAN_500_rhum_225.txt.gz
RH
50 71 61 96 100 86 66 49 80 100 100 99 100 100 100 95 83 59 62 83 52 27 28 28 57 92 100 84 93 92 98 97 95 98 98 96 96 97 97 99 97 98 99 97 98 98 88 88 89 94 91 94 89 82
53 42 63 100 100 100 94 91 64 62 72 70 77 86 98 82 85 84 78 81 86 35 39 44 69 86 84 76 98 82 96 99 98 99 97 97 97 98 97 96 97 96 99 97 98 92 97 97 99 92 96 96 90 86
51 48 52 71 89 100 100 92 99 100 100 100 97 97 80 69 77 77 72 94 94 59 54 74 89 96 100 100 100 96 97 93 98 99 97 98 99 98 96 95 95 95 90 87 97 88 97 95 96 88 86 100 100 99
64 46 80 57 43 81 100 100 97 92 100 100 94 77 64 57 53 93 100 99 100 93 51 47 41 72 96 86 73 67 87 97 98 98 100 99 98 96 93 96 92 87 82 81 84 86 91 88 89 89 95 99 97 86
82 67 75 83 47 45 83 100 60 54 54 82 81 81 85 87 58 44 86 99 89 100 73 27 27 26 22 37 100 100 100 100 100 99 98 99 96 97 98 98 89 70 71 72 76 88 86 78 83 88 92 82 54 61
83 83 68 76 98 81 61 68 62 53 55 60 69 100 99 83 93 100 100 93 90 96 84 98 72 89 89 83 98 97 98 99 95 98 99 96 95 98 98 96 91 88 89 91 97 92 97 92 88 74 62 52 49 71
73 82 78 74 94 99 100 99 60 60 56 65 95 72 94 100 100 100 100 66 100 100 94 69 68 88 96 100 100 97 98 100 100 100 100 99 99 100 96 89 90 91 94 97 88 68 59 59 60 59 53 58 63 74
67 75 81 60 72 87 76 86 77 83 77 60 60 74 51 99 100 100 81 56 45 96 100 100 100 91 87 73 68 68 61 72 85 67 84 93 87 91 100 93 90 94 88 85 81 75 67 63 64 73 71 67 79 72
29 72 90 96 81 68 87 99 100 100 96 57 64 92 97 78 100 100 100 67 100 100 100 100 100 100 100 97 100 100 96 75 69 67 68 87 93 82 94 94 91 96 96 92 82 79 83 78 80 77 70 74 44 30
19 39 81 99 100 100 100 92 95 100 100 100 100 100 97 98 78 98 100 100 100 100 100 100 100 98 100 100 100 100 96 91 71 71 93 98 93 90 76 78 92 91 90 95 94 80 81 84 76 60 29 17 9 6
13 20 43 81 94 100 100 100 100 100 100 100 99 100 99 98 100 100 100 100 99 94 84 97 100 86 84 85 72 66 74 64 40 32 55 69 81 75 75 88 85 97 91 89 95 86 58 31 17 11 7 6 6 7
10 13 20 42 81 80 100 100 100 100 99 98 100 100 100 100 100 100 100 97 84 73 55 64 91 99 100 100 95 98 100 92 91 83 77 62 90 100 98 98 98 100 91 65 39 23 15 9 7 7 8 10 14 20
11 11 13 17 29 72 74 96 100 100 100 100 100 100 100 100 100 100 97 95 98 97 100 96 100 92 95 100 100 100 100 93 97 100 99 100 100 100 99 92 72 44 28 16 10 9 9 10 10 14 20 29 37 42
10 12 13 13 15 17 26 52 68 93 84 88 93 96 94 99 100 100 100 100 100 100 100 100 100 100 100 100 100 94 96 100 100 98 92 81 72 64 39 28 23 14 10 10 13 16 20 24 34 44 51 52 53 55
10 10 11 12 14 15 15 15 15 21 37 49 50 45 53 56 65 79 91 98 100 100 100 100 100 100 99 97 94 92 91 82 74 51 36 33 30 21 16 12 12 13 19 22 25 32 38 44 50 52 52 54 61 60
12 11 11 12 11 10 10 10 11 11 12 13 14 14 16 21 23 34 40 42 47 59 73 77 78 84 81 76 63 52 44 37 31 25 20 16 17 48 59 63 59 48 42 44 45 44 46 47 53 59 62 53 46 39
16 16 14 13 15 19 21 20 18 14 9 8 8 8 12 13 13 12 12 11 12 14 17 18 20 24 30 28 25 23 20 20 18 20 34 58 58 72 77 75 68 64 66 68 68 63 58 53 49 44 38 33 28 26
17 19 21 24 25 23 22 24 24 20 16 12 8 7 7 9 12 13 14 14 14 14 14 14 16 18 19 20 23 20 19 19 46 60 58 62 76 87 87 83 82 86 86 73 60 52 45 38 33 28 25 24 23 20
21 22 25 27 30 29 31 33 29 23 18 17 12 8 8 10 10 14 14 15 17 19 21 22 22 21 21 19 19 27 44 65 81 79 83 87 83 84 86 85 73 61 49 44 39 34 30 26 24 20 17 15 14 14
23 24 27 31 34 35 39 45 44 41 29 21 18 15 10 9 9 9 10 12 15 17 19 27 32 32 29 28 38 55 78 81 66 63 60 55 53 52 51 45 38 36 34 31 28 26 23 16 15 21 33 42 47 47
19 24 29 31 36 41 45 48 52 55 57 59 36 23 21 17 13 11 10 10 10 10 10 11 11 13 14 17 25 44 54 66 71 72 74 67 47 37 35 32 30 27 27 27 20 18 28 43 42 42 54 60 62 63
20 21 24 31 34 37 40 42 44 47 51 54 56 59 54 34 26 24 23 18 12 11 11 12 12 12 13 14 15 18 21 29 35 34 25 26 28 27 27 34 42 35 24 28 44 52 56 58 63 67 66 66 70 73
67 36 33 30 31 36 35 43 45 49 53 53 55 56 59 57 52 45 38 33 27 25 23 21 20 22 21 20 18 18 19 19 21 24 28 34 40 43 30 18 19 31 41 45 54 63 75 76 77 77 77 80 86 70
98 87 65 58 60 43 45 40 45 54 61 68 70 67 64 64 61 58 48 33 21 24 24 22 21 19 24 28 30 29 29 32 31 33 31 26 20 22 28 37 45 54 57 65 79 91 96 95 93 95 97 99 70 19
100 99 98 96 96 88 83 77 77 78 81 82 84 83 82 81 78 76 69 52 45 38 27 20 22 19 19 20 22 22 18 22 25 27 32 35 38 41 45 50 56 63 73 89 100 100 99 95 100 100 98 42 13 15
100 99 100 100 100 92 92 92 91 88 87 87 89 88 88 86 83 84 80 73 65 57 53 50 48 36 22 20 24 26 30 32 34 38 40 42 44 48 53 60 67 82 96 100 98 94 91 93 93 52 14 14 20 21
99 100 100 100 100 92 85 84 84 83 84 83 83 82 83 84 84 80 76 77 80 82 82 75 66 61 59 59 55 54 56 57 59 61 64 66 68 71 77 89 98 100 98 98 98 99 88 38 14 14 19 21 23 23
100 100 100 100 100 88 76 78 82 82 81 78 75 76 78 79 81 81 83 86 89 91 92 91 91 93 91 89 87 85 85 87 92 95 96 97 100 100 100 100 100 98 95 76 46 18 13 16 20 21 22 23 21 21
100 100 100 100 99 93 82 74 75 72 70 70 70 71 72 77 76 78 86 94 95 93 92 90 88 90 93 95 93 91 88 87 85 84 90 93 95 98 97 77 53 42 24 15 14 18 21 21 20 21 21 20 20 20
100 100 100 100 100 100 100 88 78 74 73 71 68 74 79 83 89 96 100 100 100 99 98 96 94 94 93 86 77 67 63 61 71 77 78 67 46 39 41 39 31 19 16 18 21 21 20 21 20 20 21 18 24 45
99 100 100 100 100 100 100 96 82 74 69 69 71 76 84 95 100 100 100 100 96 93 87 89 91 75 58 49 42 39 45 56 59 49 39 42 49 48 42 33 22 20 21 23 23 23 22 20 19 18 18 34 53 57
100 100 100 100 100 100 100 94 82 73 70 74 80 85 94 97 100 100 100 100 94 86 90 92 75 54 40 34 41 55 56 46 41 51 58 54 45 34 25 24 25 25 25 25 25 22 19 18 18 21 41 53 59 62
100 99 98 99 100 100 93 84 78 80 82 85 87 95 98 99 97 100 99 96 99 100 97 83 50 36 36 43 54 57 61 66 66 59 46 36 30 29 28 27 26 25 26 26 23 21 19 20 27 42 47 57 61 63

GFSWCAN_500_rhum_228.txt.gz
RH
47 42 49 84 64 58 90 96 100 100 100 100 100 100 100 99 95 100 100 90 57 35 55 44 60 69 57 71 95 94 99 99 97 98 99 98 95 97 98 96 95 95 99 96 98 97 80 76 87 76 77 80 98 100
59 37 42 73 60 70 71 100 100 99 100 100 100 100 100 100 100 100 100 89 47 48 94 52 57 55 91 100 100 100 100 100 92 99 99 99 92 97 97 98 98 96 97 98 98 92 90 83 86 78 76 80 97 100
65 55 45 62 91 62 81 77 97 100 100 100 100 100 100 100 98 100 100 95 54 36 77 100 95 92 40 30 72 73 68 91 96 98 100 98 97 98 97 97 98 96 96 94 94 87 91 90 77 70 75 86 88 84
80 71 53 43 88 85 76 77 77 100 76 95 100 100 100 100 100 99 95 79 64 63 58 100 100 100 100 100 100 89 92 100 100 100 99 99 98 98 97 98 98 95 94 87 89 85 88 92 91 91 88 77 70 67
80 79 63 37 54 99 100 100 95 100 96 82 89 88 90 88 92 100 97 85 76 98 87 100 100 100 100 86 95 97 94 98 97 98 98 97 98 98 96 96 85 77 80 92 91 97 90 90 85 70 63 59 61 70
83 95 82 61 43 48 68 86 80 95 100 100 96 90 85 83 96 100 94 75 98 100 100 87 100 100 100 100 100 97 86 98 100 100 100 99 100 98 98 91 83 88 97 97 95 97 94 93 87 74 65 68 79 89
78 96 94 85 69 62 73 92 80 56 50 61 100 95 91 100 100 99 93 79 100 100 100 93 99 100 100 100 100 100 94 92 95 98 96 94 99 100 94 94 100 100 100 93 93 92 84 74 83 81 74 66 58 61
60 84 100 93 97 88 80 74 58 56 55 62 90 97 99 100 99 87 53 84 98 100 100 100 93 98 100 100 100 100 89 79 91 99 100 100 100 100 97 99 97 98 97 95 82 72 79 84 84 86 80 63 59 64
29 94 94 100 100 91 84 64 48 55 60 71 94 97 100 100 100 100 98 95 99 100 100 92 93 64 74 90 95 71 38 73 100 100 100 100 100 95 96 96 92 92 89 94 99 99 99 92 88 82 77 70 68 71
13 58 100 100 97 100 100 100 100 100 98 83 82 100 98 96 100 100 100 100 100 94 76 100 100 100 100 71 56 100 100 100 100 94 100 99 95 93 94 99 94 96 96 93 95 97 90 73 74 77 76 71 75 70
9 23 87 100 100 96 89 91 97 98 89 84 66 86 81 88 96 100 100 100 99 94 80 84 100 100 100 100 98 98 94 94 95 85 89 80 76 76 81 81 88 100 96 79 73 81 93 95 97 87 82 85 76 61
8 14 39 95 100 100 100 94 78 73 88 100 100 100 95 91 81 91 94 100 100 66 74 97 94 98 100 100 100 100 100 100 100 100 100 100 100 100 100 100 100 100 94 84 88 92 94 95 96 89 73 51 31 15
10 10 18 57 95 100 100 100 100 92 75 79 90 100 100 100 89 80 74 69 70 64 89 84 88 100 100 100 100 100 100 100 100 99 93 79 90 76 66 57 69 80 90 100 100 100 92 80 68 46 25 10 8 9
10 12 12 19 60 97 99 100 100 100 100 100 100 99 100 100 99 99 94 95 83 94 100 100 100 95 98 100 100 100 100 100 100 91 96 100 100 100 100 100 100 100 100 97 84 61 35 23 14 11 11 13 15 19
10 12 13 14 17 41 88 97 99 100 100 100 100 100 100 100 100 100 100 100 99 90 79 86 97 100 100 100 100 100 96 90 83 100 100 100 100 100 96 94 88 70 54 38 27 17 12 13 16 19 22 27 32 36
10 10 12 14 15 17 18 30 62 78 96 90 88 98 99 99 97 94 94 90 94 94 90 98 100 100 98 97 98 99 100 100 100 100 94 91 90 80 71 57 41 30 23 18 15 15 18 22 27 34 42 47 53 60
12 12 12 12 11 11 12 13 13 14 18 28 44 55 56 62 59 64 80 92 92 99 100 100 100 98 99 100 100 100 100 98 94 93 80 62 52 44 34 25 20 24 31 34 32 31 37 45 52 62 64 60 54 49
15 14 14 17 19 21 22 23 19 15 11 9 9 10 13 16 16 16 25 34 44 50 58 56 68 76 81 82 78 82 78 68 58 49 39 21 16 17 34 57 57 57 57 57 58 61 74 73 58 46 43 39 34 28
17 19 22 25 26 26 27 25 23 18 15 11 8 8 8 10 12 13 13 13 13 14 16 22 32 33 25 23 25 25 24 24 19 16 14 28 46 52 54 62 68 68 67 67 66 62 49 40 37 34 30 27 26 21
19 22 26 30 30 35 40 38 32 22 18 14 10 8 9 11 13 14 14 16 17 18 17 16 17 15 16 16 16 16 16 17 19 29 52 58 70 76 73 73 71 68 65 56 45 40 35 32 29 28 27 25 47 66
19 22 27 32 35 38 46 52 55 53 46 22 16 13 11 9 9 10 10 10 11 11 11 12 15 18 20 21 23 23 23 27 50 66 70 62 55 51 49 48 44 40 38 33 28 26 26 28 23 25 54 57 51 53
18 21 25 30 36 40 43 48 51 53 55 58 54 37 20 16 16 14 11 10 11 13 13 13 12 12 13 14 18 21 28 39 49 60 59 56 54 52 48 32 27 26 26 25 26 24 21 25 38 47 49 50 60 79
17 18 20 26 32 38 39 43 43 44 46 50 54 57 60 56 48 26 22 16 14 13 12 12 12 11 11 11 12 13 13 14 21 24 22 21 22 22 22 24 26 24 21 19 20 26 35 48 54 56 60 69 79 84
26 21 20 19 24 30 41 41 46 47 52 55 58 60 58 62 62 57 50 44 36 25 16 13 13 14 14 15 14 14 15 18 19 19 17 18 18 20 20 22 24 28 32 37 40 42 48 53 57 61 67 82 90 89
87 53 46 30 27 30 35 42 44 46 53 60 68 73 70 69 66 59 54 55 49 40 29 23 18 15 16 14 13 14 15 17 19 20 22 23 27 29 31 34 37 39 39 39 40 44 51 66 83 96 97 91 88 74
100 94 91 84 60 62 56 61 64 68 70 75 82 85 84 82 80 76 67 63 62 58 55 50 43 38 35 31 26 25 23 25 28 32 35 38 42 46 50 55 62 71 82 90 97 96 94 87 73 60 47 28 16 16
100 100 100 100 100 96 96 94 88 85 84 84 87 87 84 81 79 79 77 74 74 76 79 79 74 66 59 57 57 58 62 66 69 72 74 76 78 81 87 92 93 90 86 82 72 55 43 39 34 23 16 17 21 21
100 100 100 98 92 87 93 91 93 89 85 80 80 80 78 76 80 80 80 81 79 77 76 79 83 84 85 86 84 83 83 83 82 81 79 73 71 68 66 66 61 56 45 43 46 48 40 27 20 21 22 24 24 23
100 100 100 96 86 86 93 94 92 88 82 77 75 73 76 76 76 80 85 83 78 75 76 79 83 83 81 81 81 79 72 58 47 40 39 42 45 50 49 42 39 43 51 50 37 27 25 25 25 25 25 24 23 21
100 100 100 98 90 86 87 88 86 84 75 70 72 74 77 82 86 88 95 98 90 87 88 91 88 85 86 86 83 64 48 36 28 28 33 38 38 40 44 51 53 43 32 29 28 28 28 28 27 26 25 23 21 19
100 100 100 98 91 84 83 81 76 78 82 82 80 79 88 100 100 100 99 97 90 93 100 100 93 94 93 88 62 39 31 31 30 31 35 43 49 48 42 38 35 34 36 36 30 26 27 28 27 26 25 21 22 34
100 100 100 97 94 90 84 78 71 72 71 73 77 84 92 100 100 100 100 96 95 97 96 94 93 94 91 68 38 34 32 32 34 38 41 40 36 34 36 39 39 37 30 27 26 28 28 26 27 24 21 27 41 42
100 100 99 99 100 98 89 78 72 72 76 80 85 88 91 99 100 100 100 96 96 97 95 93 94 93 70 43 38 36 35 38 41 42 42 43 40 36 35 37 36 34 26 24 26 26 27 26 21 20 30 46 42 43

GFSWCAN_500_rhum_231.txt.gz
RH
59 50 34 39 94 76 82 75 93 100 94 95 97 96 99 100 100 71 75 89 94 100 100 97 35 8 7 14 77 95 100 100 100 99 99 99 97 97 97 92 96 97 99 98 99 97 79 84 80 85 89 90 89 98
61 56 40 35 73 78 89 90 98 100 100 100 100 98 99 100 100 98 96 86 94 100 100 100 100 46 7 8 32 94 100 99 99 100 97 99 97 95 90 95 97 98 98 99 98 96 94 93 100 92 97 92 88 91
68 62 43 32 84 83 89 82 92 100 100 100 100 100 98 76 96 97 98 100 74 91 100 100 100 100 74 35 33 61 94 100 100 96 99 99 98 99 100 98 100 95 97 96 97 95 96 98 98 95 90 84 86 84
68 69 50 28 90 85 80 87 92 100 100 100 100 100 100 100 100 100 100 100 96 84 100 100 100 100 100 96 76 100 100 100 100 100 99 99 96 99 99 98 97 98 96 94 93 94 99 97 97 96 96 96 97 97
67 73 63 36 79 83 76 79 88 100 100 100 100 100 100 100 100 100 100 95 98 78 83 100 100 100 92 81 61 85 100 100 100 99 98 99 96 99 96 99 89 90 94 97 90 98 94 95 88 84 90 93 95 94
52 79 72 40 72 100 90 100 100 84 98 100 100 100 100 100 100 100 100 100 84 73 60 83 100 78 90 99 91 95 95 93 94 99 100 99 98 100 97 87 82 91 94 98 95 95 92 94 92 90 94 98 98 97
30 84 87 58 44 94 97 100 100 95 79 81 90 97 100 100 100 100 92 76 83 77 74 74 91 100 100 100 93 98 100 100 99 98 99 99 99 100 94 75 81 87 89 86 86 87 82 85 89 97 96 97 96 94
10 86 90 82 57 54 75 100 98 97 100 100 94 86 92 100 100 100 100 100 100 81 84 94 97 99 100 100 100 100 100 100 100 100 100 100 98 97 86 76 81 85 88 92 95 87 85 85 93 100 100 97 93 95
9 37 100 90 90 84 63 100 100 99 92 100 100 97 98 93 87 72 87 97 100 93 65 64 66 92 100 100 100 100 100 100 100 100 94 97 100 96 93 91 94 95 99 100 100 99 98 100 98 84 82 94 100 100
11 11 89 100 90 92 89 79 78 64 77 78 96 100 100 92 89 83 76 72 100 55 57 61 61 58 91 100 100 100 100 100 100 100 100 100 88 88 92 99 100 100 100 98 94 93 93 96 100 100 100 96 94 97
10 14 73 94 100 89 99 85 66 60 68 61 68 65 65 79 100 99 100 90 92 92 57 61 81 84 96 100 100 100 99 92 100 99 100 98 99 100 100 100 100 100 98 99 94 90 94 100 97 99 100 100 99 98
10 12 50 100 96 100 95 100 100 100 100 91 83 92 100 100 100 100 98 97 78 81 64 57 64 93 99 97 99 98 98 97 95 94 82 72 56 100 100 99 100 100 95 92 94 98 100 100 100 96 90 92 98 100
10 11 25 87 100 89 91 100 100 100 100 100 100 100 100 99 92 83 83 80 81 89 100 100 84 100 100 100 100 100 100 92 77 69 59 69 99 100 94 86 88 94 100 100 100 100 100 100 100 96 100 100 100 95
11 12 18 49 95 100 95 81 84 97 100 100 100 100 100 93 91 88 77 74 92 97 100 88 70 97 99 100 95 98 100 100 88 68 92 100 100 100 100 100 100 100 100 100 99 98 91 79 83 95 91 82 62 42
12 13 15 28 64 99 100 100 100 100 98 94 100 100 100 99 100 91 86 89 90 94 92 64 93 97 100 100 100 100 100 100 97 97 100 100 100 100 100 100 95 95 93 89 83 83 85 86 82 65 41 22 16 15
12 13 15 18 29 65 100 100 100 100 100 100 99 100 100 100 100 99 90 91 83 63 49 72 91 100 96 96 98 96 98 99 100 100 100 99 93 96 99 99 98 96 96 93 84 68 53 40 29 20 15 18 24 30
12 14 15 17 17 19 29 59 95 98 100 100 100 100 100 100 100 100 100 100 97 98 100 98 90 85 77 74 77 86 100 100 100 100 100 100 100 93 91 89 86 80 66 47 35 27 22 22 22 24 30 38 43 48
13 13 14 14 14 14 14 14 16 21 33 64 90 95 95 90 90 73 81 88 98 100 100 100 100 100 100 100 100 100 100 100 100 100 100 100 96 92 84 73 59 45 33 27 33 45 53 56 56 57 64 73 72 59
13 13 15 16 18 21 23 22 19 16 12 10 10 18 31 47 55 49 48 57 62 67 74 95 100 100 100 100 100 100 100 100 100 96 90 79 68 57 44 28 19 28 47 53 51 55 59 57 56 57 53 43 31 23
14 14 15 17 19 21 26 27 25 21 15 10 9 8 9 12 15 16 16 17 25 33 40 43 46 59 69 81 85 83 75 65 54 41 33 23 18 17 30 46 52 53 53 55 57 58 52 50 46 36 29 24 21 19
17 20 24 28 30 34 35 32 22 19 15 10 9 9 9 10 12 12 13 13 14 14 14 14 15 16 19 21 21 22 20 19 17 16 16 19 32 48 56 59 54 47 43 43 39 31 25 24 23 21 20 19 17 18
18 22 28 32 38 45 53 54 52 37 20 14 11 9 9 9 9 9 10 10 10 10 11 11 10 11 13 15 16 16 16 17 18 19 25 48 58 55 47 42 36 29 24 21 19 18 19 20 19 19 20 24 30 39
19 23 30 35 38 44 49 54 54 52 54 50 37 18 15 14 14 12 12 12 12 11 10 10 9 9 9 10 12 14 15 16 18 21 34 44 46 41 27 17 16 17 19 20 21 24 29 32 35 37 39 43 48 52
19 21 24 31 36 40 43 44 44 45 48 53 56 59 59 48 36 28 18 14 13 14 13 12 12 12 12 12 12 13 14 14 14 15 16 16 18 18 20 22 25 28 31 33 35 38 41 46 53 60 67 74 82 88
22 20 22 24 27 31 34 37 39 42 45 50 53 58 61 65 61 65 66 64 52 41 36 31 27 24 21 22 22 23 22 21 22 21 21 20 23 25 28 30 32 35 42 52 64 75 82 84 85 86 82 66 50 46
29 24 25 21 21 23 24 28 33 36 41 48 56 67 75 74 72 71 72 71 70 69 70 67 53 32 21 21 20 19 20 25 25 28 32 37 44 50 56 64 69 73 77 75 70 61 51 46 44 41 42 44 42 35
86 64 45 42 30 31 35 38 35 40 48 57 66 77 84 84 82 77 78 78 73 71 70 68 64 61 57 52 50 50 52 55 60 66 69 70 69 68 66 60 54 45 36 33 31 30 32 35 40 39 32 29 30 30
100 100 100 94 89 83 72 74 76 78 86 90 89 86 86 86 88 85 80 78 76 73 68 67 70 74 76 75 75 76 76 74 73 72 72 66 50 39 31 28 26 25 26 27 29 32 31 27 28 32 34 31 25 25
100 100 100 99 95 98 99 99 98 98 92 88 84 84 84 82 85 85 84 82 80 79 77 77 77 78 78 77 75 76 78 79 78 65 48 34 29 26 24 23 27 27 26 24 22 22 24 33 36 31 27 24 24 25
100 99 95 94 98 99 99 95 95 92 89 90 91 85 81 82 80 81 82 81 79 80 81 82 85 84 82 80 80 81 83 78 59 41 29 28 26 26 28 29 29 30 31 31 30 29 31 35 34 28 22 21 23 24
100 100 97 94 94 92 95 95 90 89 93 96 89 80 79 81 86 93 94 91 90 87 84 81 82 83 82 82 84 87 89 77 46 34 30 27 29 33 34 37 41 42 41 38 33 34 37 34 27 22 22 22 18 15
98 98 94 88 87 89 93 93 90 89 93 94 96 95 96 95 97 97 95 95 96 90 88 88 90 94 96 94 92 95 92 54 35 34 33 35 39 41 45 52 55 55 49 38 36 37 34 26 21 21 16 13 14 19
97 96 93 90 86 86 84 82 86 91 95 99 100 97 95 95 100 99 97 95 94 91 92 96 99 100 98 97 98 93 57 39 41 46 51 57 61 66 69 67 64 50 34 32 33 29 21 20 17 13 13 16 29 44

GFSWCAN_500_rhum_237.txt.gz
RH
75 60 25 5 18 48 44 22 43 52 97 83 91 100 100 97 100 100 100 75 100 100 100 92 76 69 80 96 91 83 100 99 99 100 100 91 98 96 97 99 99 99 99 99 99 98 84 76 74 73 82 89 96 93
80 46 10 5 51 49 26 36 59 73 88 93 81 76 86 80 95 100 99 100 100 100 94 94 80 100 96 99 99 100 96 73 67 100 98 100 99 91 87 92 96 98 97 98 99 85 98 96 96 89 83 86 85 83
77 32 6 24 57 35 46 57 62 79 91 86 88 64 65 79 100 100 99 94 81 85 66 94 94 85 94 100 100 99 77 68 43 100 100 99 100 85 71 93 87 91 92 96 98 96 97 94 100 94 94 91 94 86
66 20 6 58 60 40 61 65 95 88 84 98 81 68 55 57 67 67 68 76 93 98 94 97 100 100 100 100 96 75 46 34 36 99 100 100 100 100 100 85 90 100 99 97 97 95 97 94 95 96 90 90 92 91
59 14 8 65 65 54 62 61 69 100 87 84 95 82 70 79 87 88 89 95 100 100 100 100 100 100 100 85 58 79 74 66 37 100 100 97 100 100 100 99 94 89 93 99 93 99 97 96 92 91 88 72 70 80
61 12 9 70 71 83 75 50 65 98 100 100 92 92 98 97 99 100 88 75 84 88 100 100 96 100 100 99 100 90 70 72 76 100 100 100 100 100 100 100 86 93 97 99 99 97 96 97 92 85 74 69 70 78
66 13 9 72 82 80 81 75 77 86 100 100 100 93 92 73 59 58 64 81 93 100 98 100 100 92 92 89 79 72 100 95 99 100 100 90 69 91 87 90 80 97 100 97 100 99 99 100 100 96 92 84 85 93
68 14 9 61 87 92 98 98 93 84 97 100 99 100 100 95 94 83 93 90 87 79 100 99 92 100 100 95 67 80 100 98 89 98 100 100 100 100 97 58 54 67 89 94 100 98 97 98 99 100 99 89 84 86
66 16 10 32 96 87 100 99 84 89 91 100 98 98 100 100 100 100 100 97 99 100 100 100 100 98 99 91 78 89 98 99 97 79 100 100 100 100 82 96 92 100 100 100 99 98 92 89 100 100 85 83 80 84
68 18 11 18 98 89 92 100 100 99 91 100 100 100 100 100 100 100 100 100 100 100 100 100 96 85 77 69 76 94 92 96 100 79 94 96 97 100 100 100 100 100 100 98 97 91 93 88 81 73 74 68 59 60
75 20 11 14 94 100 73 87 100 100 100 100 100 100 100 100 100 100 100 100 95 100 96 74 71 81 82 69 56 60 81 84 95 100 100 75 56 66 97 97 84 97 93 97 96 87 86 72 66 65 72 81 80 77
81 23 11 16 90 100 99 74 71 99 100 100 100 100 100 100 94 100 99 96 92 94 78 70 71 70 68 84 66 54 64 88 82 100 100 100 98 76 84 100 100 99 98 96 92 82 71 61 60 81 98 99 98 100
85 25 11 12 95 100 99 98 87 74 96 100 100 100 100 100 97 84 92 91 76 78 66 42 47 60 73 69 62 70 81 97 90 88 81 98 100 84 71 74 75 86 99 86 92 97 97 96 98 100 100 100 100 100
81 22 11 11 87 100 99 100 97 93 87 88 78 90 100 100 84 82 71 80 81 71 55 48 52 57 68 80 86 100 100 100 91 62 64 83 92 99 99 86 82 79 97 100 100 100 100 100 100 100 100 100 100 96
66 18 11 12 56 100 100 96 97 94 72 62 61 71 72 74 72 71 63 46 51 61 57 56 71 79 100 98 88 100 100 100 88 66 63 72 99 95 93 100 100 100 100 100 100 100 94 89 85 86 91 93 96 97
46 15 12 15 40 100 100 100 100 98 96 89 83 92 84 80 79 88 97 97 83 67 71 85 100 100 91 92 100 100 97 100 99 91 72 68 82 93 98 100 100 100 98 97 94 87 83 72 76 90 100 100 100 100
27 14 14 17 40 97 100 100 100 100 100 100 97 100 93 98 100 99 96 95 88 77 81 93 99 95 98 98 100 100 100 99 96 100 77 58 50 44 41 40 43 70 95 100 100 86 86 91 100 100 100 99 94 94
17 15 16 21 38 70 100 100 100 100 100 100 100 100 99 100 100 100 100 94 94 91 84 99 100 100 100 100 100 100 100 100 100 100 100 100 95 99 100 100 100 99 94 100 100 100 100 100 100 100 95 87 81 74
18 18 19 23 33 49 70 98 100 100 97 100 99 100 99 98 99 100 100 100 100 100 100 100 100 100 100 100 100 100 100 100 100 100 100 100 100 100 100 100 100 100 100 100 100 98 94 92 84 75 66 55 42 31
19 20 20 24 26 29 31 33 49 63 84 87 97 100 100 100 97 96 99 100 100 100 100 100 100 100 100 100 100 100 100 100 100 100 100 100 100 100 100 99 97 94 87 81 78 76 73 60 41 33 29 27 25 23
19 20 21 22 22 20 18 18 16 16 15 16 17 22 32 71 84 70 67 72 88 98 100 100 100 100 100 100 100 100 100 100 100 100 99 99 95 89 86 80 70 56 48 38 34 31 31 33 35 32 22 14 12 13
20 20 20 19 20 21 22 25 25 23 20 16 16 14 13 14 17 22 26 29 28 38 52 63 76 95 99 91 89 90 95 97 92 82 68 61 61 60 49 38 29 34 42 45 46 40 31 22 13 13 16 21 26 31
20 20 21 20 20 23 27 30 26 18 11 12 14 14 14 15 18 23 19 22 20 21 22 23 25 28 32 31 30 30 28 26 22 19 18 18 19 22 24 32 39 36 26 16 11 12 16 20 25 30 34 41 50 59
19 20 18 20 28 34 32 27 22 16 13 12 12 13 14 17 21 20 19 19 19 19 18 19 20 20 21 21 21 21 20 19 18 18 19 19 18 18 21 22 17 15 15 18 23 27 32 39 49 60 64 56 38 27
21 20 25 32 40 50 51 48 48 33 17 15 14 13 12 12 13 12 13 13 13 13 13 12 11 11 12 12 12 13 12 13 15 14 14 13 15 16 18 19 22 25 28 34 47 62 69 64 48 28 24 25 26 26
22 22 31 38 48 53 56 56 58 58 59 56 34 27 24 14 13 13 14 15 15 14 13 12 12 11 10 10 11 12 14 15 16 18 19 21 23 24 28 34 46 60 69 73 70 54 34 23 22 26 30 34 37 38
21 25 31 36 45 50 53 50 49 50 52 57 62 64 64 63 60 57 50 41 36 30 23 18 18 17 17 17 17 18 20 24 29 39 49 56 60 66 73 79 82 81 73 50 31 23 26 34 40 44 47 48 51 54
21 24 28 33 37 43 46 45 43 42 43 46 54 65 76 75 73 74 78 80 80 79 81 80 77 73 70 71 71 73 74 77 78 81 88 91 89 84 83 82 72 41 28 24 26 34 41 48 55 57 55 52 49 47
23 23 24 27 31 37 36 32 30 29 32 36 45 54 66 86 91 92 91 93 94 95 91 89 87 85 85 86 89 93 96 96 94 91 92 92 89 82 70 50 34 28 27 33 43 54 62 61 55 48 45 44 41 36
26 24 24 23 24 23 24 28 29 39 54 66 78 86 96 100 100 100 100 96 92 90 89 88 87 88 89 88 89 91 95 94 92 92 92 92 91 83 60 40 35 39 56 65 66 64 58 48 44 41 34 26 22 19
68 53 43 34 31 44 55 70 76 83 95 100 100 100 99 94 90 88 87 84 80 77 78 80 84 87 87 90 94 95 94 94 93 93 92 93 94 85 50 44 54 67 69 67 58 46 41 36 29 23 19 17 14 10
97 99 98 97 94 95 99 100 100 100 100 100 100 100 97 90 85 80 77 76 76 82 89 95 94 93 94 94 94 93 91 88 87 86 88 92 92 66 58 66 75 73 62 45 39 34 28 22 19 17 14 10 9 11
93 97 95 96 96 97 100 100 100 100 100 100 100 100 99 90 82 81 80 84 89 97 100 100 99 97 95 94 93 90 88 90 90 89 90 96 95 86 84 78 60 40 33 32 28 24 21 19 15 12 10 11 16 29